Time,TemperatureF,DewpointF,PressureIn,WindDirection,WindDirectionDegrees,WindSpeedMPH,WindSpeedGustMPH,Humidity,HourlyPrecipIn,Conditions,Clouds,dailyrainin,SoftwareType,DateUTC
2013-01-31 00:00:00,26.2,22.6,29.57,NW,307,6.0,14.0,86,0.00,,,0.00,VWS V14.01,2013-01-31 05:00:00,
2013-01-31 00:02:00,26.2,22.9,29.58,WNW,282,9.0,14.0,87,0.00,,,0.00,VWS V14.01,2013-01-31 05:02:00,
2013-01-31 00:03:00,26.1,22.8,29.58,NW,304,10.0,14.0,87,0.00,,,0.00,VWS V14.01,2013-01-31 05:03:00,
2013-01-31 00:08:00,26.0,22.1,29.58,WNW,283,10.0,19.0,85,0.00,,,0.00,VWS V14.01,2013-01-31 05:08:00,
2013-01-31 00:13:00,25.8,21.9,29.59,WNW,294,2.0,20.0,85,0.00,,,0.00,VWS V14.01,2013-01-31 05:13:00,
2013-01-31 00:18:00,25.7,21.8,29.59,WNW,287,6.0,20.0,85,0.00,,,0.00,VWS V14.01,2013-01-31 05:18:00,
2013-01-31 00:23:00,25.6,22.3,29.59,West,280,14.0,20.0,87,0.00,,,0.00,VWS V14.01,2013-01-31 05:23:00,
2013-01-31 00:28:00,25.3,21.7,29.59,West,276,13.0,17.0,86,0.00,,,0.00,VWS V14.01,2013-01-31 05:28:00,
2013-01-31 00:30:00,25.3,22.0,29.59,NW,306,11.0,20.0,87,0.00,,,0.00,VWS V14.01,2013-01-31 05:30:00,
2013-01-31 00:33:00,25.1,21.5,29.60,West,269,9.0,18.0,86,0.00,,,0.00,VWS V14.01,2013-01-31 05:33:00,
2013-01-31 00:38:00,24.8,21.2,29.60,WNW,294,3.0,18.0,86,0.00,,,0.00,VWS V14.01,2013-01-31 05:38:00,
2013-01-31 00:43:00,24.5,20.9,29.61,WNW,297,3.0,18.0,86,0.00,,,0.00,VWS V14.01,2013-01-31 05:43:00,
2013-01-31 00:48:00,24.3,20.5,29.61,WSW,240,6.0,22.0,85,0.00,,,0.00,VWS V14.01,2013-01-31 05:48:00,
2013-01-31 00:53:00,24.1,20.0,29.61,WNW,300,8.0,22.0,84,0.00,,,0.00,VWS V14.01,2013-01-31 05:53:00,
2013-01-31 00:58:00,24.0,20.1,29.62,SW,233,2.0,6.0,85,0.00,,,0.00,VWS V14.01,2013-01-31 05:58:00,
2013-01-31 01:00:00,24.0,20.1,29.62,WNW,287,4.0,22.0,85,0.00,,,0.00,VWS V14.01,2013-01-31 06:00:00,
2013-01-31 01:03:00,23.8,20.0,29.62,WNW,287,4.0,13.0,85,0.00,,,0.00,VWS V14.01,2013-01-31 06:03:00,
2013-01-31 01:08:00,23.6,19.2,29.63,WNW,301,9.0,14.0,83,0.00,,,0.00,VWS V14.01,2013-01-31 06:08:00,
2013-01-31 01:13:00,23.5,19.1,29.63,WNW,297,4.0,23.0,83,0.00,,,0.00,VWS V14.01,2013-01-31 06:13:00,
2013-01-31 01:18:00,23.5,19.4,29.63,WSW,256,6.0,23.0,84,0.00,,,0.00,VWS V14.01,2013-01-31 06:18:00,
2013-01-31 01:23:00,23.3,19.5,29.64,WSW,241,15.0,23.0,85,0.00,,,0.00,VWS V14.01,2013-01-31 06:23:00,
2013-01-31 01:28:00,23.1,18.4,29.64,West,268,7.0,7.0,82,0.00,,,0.00,VWS V14.01,2013-01-31 06:28:00,
2013-01-31 01:30:00,23.2,18.5,29.64,WNW,290,5.0,23.0,82,0.00,,,0.00,VWS V14.01,2013-01-31 06:30:00,
2013-01-31 01:33:00,22.9,18.2,29.65,West,281,10.0,14.0,82,0.00,,,0.00,VWS V14.01,2013-01-31 06:33:00,
2013-01-31 01:38:00,22.7,18.0,29.65,West,259,9.0,16.0,82,0.00,,,0.00,VWS V14.01,2013-01-31 06:38:00,
2013-01-31 01:43:00,22.5,18.1,29.65,West,259,12.0,16.0,83,0.00,,,0.00,VWS V14.01,2013-01-31 06:43:00,
2013-01-31 01:48:00,22.4,17.8,29.65,NW,304,7.0,21.0,82,0.00,,,0.00,VWS V14.01,2013-01-31 06:48:00,
2013-01-31 01:53:00,22.4,18.0,29.65,West,269,11.0,21.0,83,0.00,,,0.00,VWS V14.01,2013-01-31 06:53:00,
2013-01-31 01:58:00,22.3,17.9,29.65,SW,214,7.0,12.0,83,0.00,,,0.00,VWS V14.01,2013-01-31 06:58:00,
2013-01-31 02:00:00,22.3,17.9,29.66,WNW,290,10.0,21.0,83,0.00,,,0.00,VWS V14.01,2013-01-31 07:00:00,
2013-01-31 02:03:00,22.2,18.1,29.66,West,274,4.0,19.0,84,0.00,,,0.00,VWS V14.01,2013-01-31 07:03:00,
2013-01-31 02:08:00,22.1,18.3,29.66,NW,309,7.0,19.0,85,0.00,,,0.00,VWS V14.01,2013-01-31 07:08:00,
2013-01-31 02:13:00,22.1,18.3,29.67,SW,226,5.0,19.0,85,0.00,,,0.00,VWS V14.01,2013-01-31 07:13:00,
2013-01-31 02:18:00,22.1,18.6,29.66,NW,305,6.0,19.0,86,0.00,,,0.00,VWS V14.01,2013-01-31 07:18:00,
2013-01-31 02:23:00,21.9,18.4,29.67,WNW,294,6.0,19.0,86,0.00,,,0.00,VWS V14.01,2013-01-31 07:23:00,
2013-01-31 02:28:00,21.8,18.0,29.67,South,179,4.0,9.0,85,0.00,,,0.00,VWS V14.01,2013-01-31 07:28:00,
2013-01-31 02:30:00,21.8,18.3,29.67,WSW,246,7.0,19.0,86,0.00,,,0.00,VWS V14.01,2013-01-31 07:30:00,
2013-01-31 02:33:00,21.7,17.6,29.68,WNW,294,4.0,15.0,84,0.00,,,0.00,VWS V14.01,2013-01-31 07:33:00,
2013-01-31 02:38:00,21.9,17.3,29.68,West,266,9.0,15.0,82,0.00,,,0.00,VWS V14.01,2013-01-31 07:38:00,
2013-01-31 02:43:00,22.0,17.1,29.68,South,190,6.0,21.0,81,0.00,,,0.00,VWS V14.01,2013-01-31 07:43:00,
2013-01-31 02:48:00,22.1,17.5,29.68,NW,309,7.0,21.0,82,0.00,,,0.00,VWS V14.01,2013-01-31 07:48:00,
2013-01-31 02:53:00,22.1,17.7,29.68,SW,233,3.0,21.0,83,0.00,,,0.00,VWS V14.01,2013-01-31 07:53:00,
2013-01-31 02:58:00,22.1,18.0,29.69,WSW,249,6.0,7.0,84,0.00,,,0.00,VWS V14.01,2013-01-31 07:58:00,
2013-01-31 03:00:00,22.1,18.0,29.69,West,269,7.0,21.0,84,0.00,,,0.00,VWS V14.01,2013-01-31 08:00:00,
2013-01-31 03:03:00,22.1,18.3,29.69,NW,314,10.0,13.0,85,0.00,,,0.00,VWS V14.01,2013-01-31 08:03:00,
2013-01-31 03:08:00,22.1,18.0,29.69,West,266,3.0,21.0,84,0.00,,,0.00,VWS V14.01,2013-01-31 08:08:00,
2013-01-31 03:13:00,22.2,17.5,29.69,WSW,238,8.0,21.0,82,0.00,,,0.00,VWS V14.01,2013-01-31 08:13:00,
2013-01-31 03:18:00,22.3,17.6,29.69,WSW,251,7.0,21.0,82,0.00,,,0.00,VWS V14.01,2013-01-31 08:18:00,
2013-01-31 03:23:00,22.3,17.9,29.70,WNW,300,5.0,21.0,83,0.00,,,0.00,VWS V14.01,2013-01-31 08:23:00,
2013-01-31 03:28:00,22.3,17.9,29.70,WNW,291,4.0,7.0,83,0.00,,,0.00,VWS V14.01,2013-01-31 08:28:00,
2013-01-31 03:30:00,22.3,17.9,29.70,West,276,5.0,21.0,83,0.00,,,0.00,VWS V14.01,2013-01-31 08:30:00,
2013-01-31 03:33:00,22.3,17.9,29.70,West,281,6.0,13.0,83,0.00,,,0.00,VWS V14.01,2013-01-31 08:33:00,
2013-01-31 03:38:00,22.3,17.4,29.70,NW,307,8.0,21.0,81,0.00,,,0.00,VWS V14.01,2013-01-31 08:38:00,
2013-01-31 03:43:00,22.3,17.4,29.70,WNW,284,9.0,21.0,81,0.00,,,0.00,VWS V14.01,2013-01-31 08:43:00,
2013-01-31 03:48:00,22.4,17.5,29.70,SW,236,3.0,21.0,81,0.00,,,0.00,VWS V14.01,2013-01-31 08:48:00,
2013-01-31 03:53:00,22.4,17.5,29.70,West,280,7.0,21.0,81,0.00,,,0.00,VWS V14.01,2013-01-31 08:53:00,
2013-01-31 03:58:00,22.4,17.5,29.70,NW,323,4.0,8.0,81,0.00,,,0.00,VWS V14.01,2013-01-31 08:58:00,
2013-01-31 04:00:00,22.4,17.5,29.70,WNW,300,4.0,21.0,81,0.00,,,0.00,VWS V14.01,2013-01-31 09:00:00,
2013-01-31 04:03:00,22.4,17.8,29.70,WNW,287,5.0,14.0,82,0.00,,,0.00,VWS V14.01,2013-01-31 09:03:00,
2013-01-31 04:08:00,22.5,17.6,29.70,West,264,7.0,14.0,81,0.00,,,0.00,VWS V14.01,2013-01-31 09:08:00,
2013-01-31 04:13:00,22.5,17.9,29.70,West,281,10.0,14.0,82,0.00,,,0.00,VWS V14.01,2013-01-31 09:13:00,
2013-01-31 04:18:00,22.5,17.0,29.70,WNW,300,3.0,17.0,79,0.00,,,0.00,VWS V14.01,2013-01-31 09:18:00,
2013-01-31 04:23:00,22.4,17.2,29.70,West,277,6.0,17.0,80,0.00,,,0.00,VWS V14.01,2013-01-31 09:23:00,
2013-01-31 04:28:00,22.3,17.1,29.70,West,279,6.0,9.0,80,0.00,,,0.00,VWS V14.01,2013-01-31 09:28:00,
2013-01-31 04:30:00,22.4,17.2,29.71,NW,312,9.0,17.0,80,0.00,,,0.00,VWS V14.01,2013-01-31 09:30:00,
2013-01-31 04:33:00,22.3,17.1,29.71,West,267,9.0,14.0,80,0.00,,,0.00,VWS V14.01,2013-01-31 09:33:00,
2013-01-31 04:38:00,22.1,17.2,29.72,WSW,239,8.0,16.0,81,0.00,,,0.00,VWS V14.01,2013-01-31 09:38:00,
2013-01-31 04:43:00,21.9,17.0,29.72,WSW,245,13.0,20.0,81,0.00,,,0.00,VWS V14.01,2013-01-31 09:43:00,
2013-01-31 04:48:00,21.5,17.1,29.72,WNW,287,8.0,20.0,83,0.00,,,0.00,VWS V14.01,2013-01-31 09:48:00,
2013-01-31 04:53:00,20.7,16.4,29.73,WNW,289,12.0,20.0,83,0.00,,,0.00,VWS V14.01,2013-01-31 09:53:00,
2013-01-31 04:58:00,20.4,15.5,29.73,WNW,294,8.0,10.0,81,0.00,,,0.00,VWS V14.01,2013-01-31 09:58:00,
2013-01-31 05:00:00,20.5,15.6,29.73,WSW,248,10.0,20.0,81,0.00,,,0.00,VWS V14.01,2013-01-31 10:00:00,
2013-01-31 05:03:00,20.3,15.1,29.73,SW,215,7.0,14.0,80,0.00,,,0.00,VWS V14.01,2013-01-31 10:03:00,
2013-01-31 05:08:00,20.1,13.8,29.74,West,271,6.0,23.0,76,0.00,,,0.00,VWS V14.01,2013-01-31 10:08:00,
2013-01-31 05:13:00,19.7,14.8,29.75,WNW,301,2.0,23.0,81,0.00,,,0.00,VWS V14.01,2013-01-31 10:13:00,
2013-01-31 05:18:00,18.9,15.1,29.75,WNW,299,4.0,23.0,85,0.00,,,0.00,VWS V14.01,2013-01-31 10:18:00,
2013-01-31 05:23:00,18.6,15.4,29.74,SW,225,4.0,23.0,87,0.00,,,0.00,VWS V14.01,2013-01-31 10:23:00,
2013-01-31 05:28:00,18.6,14.9,29.75,NW,306,4.0,4.0,85,0.00,,,0.00,VWS V14.01,2013-01-31 10:28:00,
2013-01-31 05:30:00,18.6,14.9,29.75,WSW,239,3.0,23.0,85,0.00,,,0.00,VWS V14.01,2013-01-31 10:30:00,
2013-01-31 05:33:00,18.9,14.6,29.75,WSW,241,3.0,10.0,83,0.00,,,0.00,VWS V14.01,2013-01-31 10:33:00,
2013-01-31 05:38:00,19.0,14.1,29.75,NW,314,8.0,16.0,81,0.00,,,0.00,VWS V14.01,2013-01-31 10:38:00,
2013-01-31 05:43:00,18.8,14.5,29.75,WSW,252,8.0,16.0,83,0.00,,,0.00,VWS V14.01,2013-01-31 10:43:00,
2013-01-31 05:48:00,18.9,14.6,29.75,WSW,257,5.0,16.0,83,0.00,,,0.00,VWS V14.01,2013-01-31 10:48:00,
2013-01-31 05:53:00,19.0,14.4,29.75,WNW,287,3.0,16.0,82,0.00,,,0.00,VWS V14.01,2013-01-31 10:53:00,
2013-01-31 05:58:00,19.1,14.5,29.76,NW,306,7.0,7.0,82,0.00,,,0.00,VWS V14.01,2013-01-31 10:58:00,
2013-01-31 06:00:00,19.0,14.4,29.75,WNW,297,2.0,16.0,82,0.00,,,0.00,VWS V14.01,2013-01-31 11:00:00,
2013-01-31 06:03:00,19.2,14.3,29.76,SW,226,5.0,9.0,81,0.00,,,0.00,VWS V14.01,2013-01-31 11:03:00,
2013-01-31 06:08:00,19.2,14.6,29.76,WNW,289,7.0,15.0,82,0.00,,,0.00,VWS V14.01,2013-01-31 11:08:00,
2013-01-31 06:13:00,19.2,14.6,29.76,WSW,249,4.0,27.0,82,0.00,,,0.00,VWS V14.01,2013-01-31 11:13:00,
2013-01-31 06:18:00,19.2,14.3,29.77,WSW,240,8.0,27.0,81,0.00,,,0.00,VWS V14.01,2013-01-31 11:18:00,
2013-01-31 06:23:00,19.1,13.1,29.77,NW,309,11.0,31.0,77,0.00,,,0.00,VWS V14.01,2013-01-31 11:23:00,
2013-01-31 06:28:00,19.0,12.7,29.77,WSW,242,11.0,12.0,76,0.00,,,0.00,VWS V14.01,2013-01-31 11:28:00,
2013-01-31 06:30:00,19.0,13.0,29.77,WSW,249,12.0,31.0,77,0.00,,,0.00,VWS V14.01,2013-01-31 11:30:00,
2013-01-31 06:33:00,18.8,12.8,29.77,West,273,9.0,15.0,77,0.00,,,0.00,VWS V14.01,2013-01-31 11:33:00,
2013-01-31 06:38:00,18.8,13.1,29.78,West,259,2.0,15.0,78,0.00,,,0.00,VWS V14.01,2013-01-31 11:38:00,
2013-01-31 06:43:00,18.8,13.4,29.78,West,261,10.0,15.0,79,0.00,,,0.00,VWS V14.01,2013-01-31 11:43:00,
2013-01-31 06:48:00,18.8,13.1,29.78,WNW,287,4.0,15.0,78,0.00,,,0.00,VWS V14.01,2013-01-31 11:48:00,
2013-01-31 06:53:00,18.8,13.7,29.78,West,269,5.0,15.0,80,0.00,,,0.00,VWS V14.01,2013-01-31 11:53:00,
2013-01-31 06:58:00,18.6,14.0,29.79,NW,314,6.0,6.0,82,0.00,,,0.00,VWS V14.01,2013-01-31 11:58:00,
2013-01-31 07:00:00,18.6,14.3,29.79,West,274,6.0,20.0,83,0.00,,,0.00,VWS V14.01,2013-01-31 12:00:00,
2013-01-31 07:03:00,18.3,12.9,29.79,NW,326,3.0,13.0,79,0.00,,,0.00,VWS V14.01,2013-01-31 12:03:00,
2013-01-31 07:08:00,18.2,13.1,29.79,WNW,293,8.0,14.0,80,0.00,,,0.00,VWS V14.01,2013-01-31 12:08:00,
2013-01-31 07:13:00,18.0,12.9,29.79,NW,304,11.0,14.0,80,0.00,,,0.00,VWS V14.01,2013-01-31 12:13:00,
2013-01-31 07:17:00,18.0,13.2,29.79,West,278,3.0,15.0,81,0.00,,,0.00,VWS V14.01,2013-01-31 12:17:00,
2013-01-31 07:22:00,18.1,13.3,29.79,NW,307,10.0,15.0,81,0.00,,,0.00,VWS V14.01,2013-01-31 12:22:00,
2013-01-31 07:27:00,18.2,13.6,29.79,West,260,5.0,8.0,82,0.00,,,0.00,VWS V14.01,2013-01-31 12:27:00,
2013-01-31 07:30:00,18.2,13.6,29.79,South,184,2.0,16.0,82,0.00,,,0.00,VWS V14.01,2013-01-31 12:30:00,
2013-01-31 07:32:00,18.3,13.7,29.80,WSW,248,6.0,12.0,82,0.00,,,0.00,VWS V14.01,2013-01-31 12:32:00,
2013-01-31 07:37:00,18.5,13.9,29.79,West,273,4.0,12.0,82,0.00,,,0.00,VWS V14.01,2013-01-31 12:37:00,
2013-01-31 07:42:00,18.6,14.3,29.80,WNW,292,3.0,12.0,83,0.00,,,0.00,VWS V14.01,2013-01-31 12:42:00,
2013-01-31 07:47:00,18.7,14.4,29.80,WSW,245,4.0,10.0,83,0.00,,,0.00,VWS V14.01,2013-01-31 12:47:00,
2013-01-31 07:52:00,18.8,14.8,29.80,West,260,6.0,10.0,84,0.00,,,0.00,VWS V14.01,2013-01-31 12:52:00,
2013-01-31 07:57:00,18.9,14.9,29.80,West,280,0.0,1.0,84,0.00,,,0.00,VWS V14.01,2013-01-31 12:57:00,
2013-01-31 08:00:00,18.9,14.9,29.81,NW,314,1.0,10.0,84,0.00,,,0.00,VWS V14.01,2013-01-31 13:00:00,
2013-01-31 08:02:00,19.0,15.0,29.81,WNW,297,2.0,9.0,84,0.00,,,0.00,VWS V14.01,2013-01-31 13:02:00,
2013-01-31 08:07:00,19.2,15.2,29.81,NW,304,1.0,9.0,84,0.00,,,0.00,VWS V14.01,2013-01-31 13:07:00,
2013-01-31 08:12:00,19.4,15.6,29.81,West,264,2.0,9.0,85,0.00,,,0.00,VWS V14.01,2013-01-31 13:12:00,
2013-01-31 08:18:00,19.5,16.0,29.81,West,281,2.0,8.0,85,0.00,,,0.00,weatherlink.com 1.10,2013-01-31 13:18:00,
2013-01-31 08:23:00,19.6,15.8,29.81,WNW,287,1.0,9.0,85,0.00,,,0.00,VWS V14.01,2013-01-31 13:23:00,
2013-01-31 08:28:00,19.7,15.9,29.81,WNW,297,0.0,4.0,85,0.00,,,0.00,VWS V14.01,2013-01-31 13:28:00,
2013-01-31 08:30:00,19.7,15.9,29.81,WSW,253,4.0,9.0,85,0.00,,,0.00,VWS V14.01,2013-01-31 13:30:00,
2013-01-31 08:33:00,19.8,16.3,29.82,West,278,2.0,4.0,86,0.00,,,0.00,VWS V14.01,2013-01-31 13:33:00,
2013-01-31 08:38:00,19.9,16.4,29.82,SW,222,0.0,6.0,86,0.00,,,0.00,VWS V14.01,2013-01-31 13:38:00,
2013-01-31 08:43:00,20.1,16.6,29.82,WSW,243,9.0,9.0,86,0.00,,,0.00,VWS V14.01,2013-01-31 13:43:00,
2013-01-31 08:48:00,20.3,16.5,29.82,SW,224,5.0,9.0,85,0.00,,,0.00,VWS V14.01,2013-01-31 13:48:00,
2013-01-31 08:53:00,20.5,16.7,29.82,WSW,240,3.0,9.0,85,0.00,,,0.00,VWS V14.01,2013-01-31 13:53:00,
2013-01-31 08:58:00,20.7,16.9,29.83,West,274,3.0,3.0,85,0.00,,,0.00,VWS V14.01,2013-01-31 13:58:00,
2013-01-31 09:00:00,20.7,16.9,29.83,WSW,250,3.0,6.0,85,0.00,,,0.00,VWS V14.01,2013-01-31 14:00:00,
2013-01-31 09:03:00,20.9,17.1,29.83,West,278,3.0,7.0,85,0.00,,,0.00,VWS V14.01,2013-01-31 14:03:00,
2013-01-31 09:07:00,21.1,17.0,29.83,SSW,207,4.0,8.0,84,0.00,,,0.00,VWS V14.01,2013-01-31 14:07:00,
2013-01-31 09:13:00,21.4,17.3,29.83,West,279,1.0,8.0,84,0.00,,,0.00,VWS V14.01,2013-01-31 14:13:00,
2013-01-31 09:18:00,21.7,17.1,29.83,West,280,4.0,8.0,82,0.00,,,0.00,VWS V14.01,2013-01-31 14:18:00,
2013-01-31 09:23:00,22.0,17.1,29.83,WSW,254,5.0,7.0,81,0.00,,,0.00,VWS V14.01,2013-01-31 14:23:00,
2013-01-31 09:28:00,22.3,17.1,29.83,West,272,4.0,4.0,80,0.00,,,0.00,VWS V14.01,2013-01-31 14:28:00,
2013-01-31 09:30:00,22.2,17.0,29.83,West,262,3.0,11.0,80,0.00,,,0.00,VWS V14.01,2013-01-31 14:30:00,
2013-01-31 09:32:00,22.5,17.3,29.83,SW,236,5.0,7.0,80,0.00,,,0.00,VWS V14.01,2013-01-31 14:32:00,
2013-01-31 09:37:00,22.7,17.2,29.84,SW,218,2.0,10.0,79,0.00,,,0.00,VWS V14.01,2013-01-31 14:37:00,
2013-01-31 09:42:00,23.0,17.5,29.84,SSW,211,4.0,10.0,79,0.00,,,0.00,VWS V14.01,2013-01-31 14:42:00,
2013-01-31 09:47:00,22.7,18.6,29.84,SW,228,4.0,10.0,84,0.00,,,0.00,VWS V14.01,2013-01-31 14:47:00,
2013-01-31 09:52:00,22.2,18.9,29.84,WNW,297,3.0,12.0,87,0.00,,,0.00,VWS V14.01,2013-01-31 14:52:00,
2013-01-31 09:57:00,22.2,19.2,29.84,West,261,4.0,12.0,88,0.00,,,0.00,VWS V14.01,2013-01-31 14:57:00,
2013-01-31 10:00:00,21.6,19.6,29.86,West,262,4.0,17.0,92,0.00,,,0.00,VWS V14.01,2013-01-31 15:00:00,
2013-01-31 10:02:00,22.4,18.9,29.84,WSW,256,5.0,12.0,86,0.00,,,0.00,VWS V14.01,2013-01-31 15:02:00,
2013-01-31 10:07:00,22.7,18.6,29.85,WNW,291,2.0,15.0,84,0.00,,,0.00,VWS V14.01,2013-01-31 15:07:00,
2013-01-31 10:13:00,22.8,19.0,29.85,SSW,194,5.0,5.0,85,0.00,,,0.00,VWS V14.01,2013-01-31 15:13:00,
2013-01-31 10:18:00,22.7,19.4,29.85,West,266,3.0,9.0,87,0.00,,,0.00,VWS V14.01,2013-01-31 15:18:00,
2013-01-31 10:23:00,22.7,20.0,29.85,NW,304,5.0,6.0,89,0.00,,,0.00,VWS V14.01,2013-01-31 15:23:00,
2013-01-31 10:28:00,22.9,20.1,29.85,West,272,4.0,4.0,89,0.00,,,0.00,VWS V14.01,2013-01-31 15:28:00,
2013-01-31 10:30:00,22.9,20.1,29.85,SW,233,3.0,6.0,89,0.00,,,0.00,VWS V14.01,2013-01-31 15:30:00,
2013-01-31 10:33:00,23.1,19.8,29.85,West,276,2.0,13.0,87,0.00,,,0.00,VWS V14.01,2013-01-31 15:33:00,
2013-01-31 10:38:00,22.7,19.4,29.86,West,277,6.0,15.0,87,0.00,,,0.00,VWS V14.01,2013-01-31 15:38:00,
2013-01-31 10:43:00,21.8,19.3,29.86,WNW,284,5.0,15.0,90,0.00,,,0.00,VWS V14.01,2013-01-31 15:43:00,
2013-01-31 10:48:00,21.4,19.2,29.86,NW,305,6.0,17.0,91,0.00,,,0.00,VWS V14.01,2013-01-31 15:48:00,
2013-01-31 10:53:00,21.4,19.4,29.86,NW,309,4.0,17.0,92,0.00,,,0.00,VWS V14.01,2013-01-31 15:53:00,
2013-01-31 10:58:00,21.6,19.6,29.86,WNW,288,4.0,4.0,92,0.00,,,0.00,VWS V14.01,2013-01-31 15:58:00,
2013-01-31 11:00:00,21.6,19.6,29.86,West,262,4.0,17.0,92,0.00,,,0.00,VWS V14.01,2013-01-31 16:00:00,
2013-01-31 11:03:00,21.8,19.6,29.87,WNW,287,7.0,7.0,91,0.00,,,0.00,VWS V14.01,2013-01-31 16:03:00,
2013-01-31 11:08:00,22.1,19.6,29.87,NW,311,4.0,13.0,90,0.00,,,0.00,VWS V14.01,2013-01-31 16:08:00,
2013-01-31 11:13:00,22.2,19.2,29.87,NW,306,7.0,10.0,88,0.00,,,0.00,VWS V14.01,2013-01-31 16:13:00,
2013-01-31 11:18:00,22.4,18.6,29.88,WNW,285,11.0,15.0,85,0.00,,,0.00,VWS V14.01,2013-01-31 16:18:00,
2013-01-31 11:23:00,22.6,18.2,29.88,NW,322,1.0,15.0,83,0.00,,,0.00,VWS V14.01,2013-01-31 16:23:00,
2013-01-31 11:28:00,22.9,18.2,29.88,WSW,248,5.0,11.0,82,0.00,,,0.00,VWS V14.01,2013-01-31 16:28:00,
2013-01-31 11:30:00,22.8,18.1,29.88,WNW,300,5.0,15.0,82,0.00,,,0.00,VWS V14.01,2013-01-31 16:30:00,
2013-01-31 11:33:00,23.2,18.5,29.88,West,277,11.0,16.0,82,0.00,,,0.00,VWS V14.01,2013-01-31 16:33:00,
2013-01-31 11:38:00,23.2,18.8,29.88,NNW,344,8.0,16.0,83,0.00,,,0.00,VWS V14.01,2013-01-31 16:38:00,
2013-01-31 11:43:00,23.2,19.1,29.88,WNW,288,4.0,16.0,84,0.00,,,0.00,VWS V14.01,2013-01-31 16:43:00,
2013-01-31 11:48:00,23.3,18.3,29.88,WNW,301,6.0,16.0,81,0.00,,,0.00,VWS V14.01,2013-01-31 16:48:00,
2013-01-31 11:53:00,23.4,17.9,29.88,NW,315,7.0,16.0,79,0.00,,,0.00,VWS V14.01,2013-01-31 16:53:00,
2013-01-31 11:58:00,23.6,17.8,29.88,SW,228,12.0,12.0,78,0.00,,,0.00,VWS V14.01,2013-01-31 16:58:00,
2013-01-31 12:00:00,23.5,17.7,29.88,WNW,297,6.0,16.0,78,0.00,,,0.00,VWS V14.01,2013-01-31 17:00:00,
2013-01-31 12:03:00,23.7,17.6,29.88,NW,304,8.0,16.0,77,0.00,,,0.00,VWS V14.01,2013-01-31 17:03:00,
2013-01-31 12:08:00,23.7,17.6,29.88,West,269,6.0,16.0,77,0.00,,,0.00,VWS V14.01,2013-01-31 17:08:00,
2013-01-31 12:13:00,23.8,18.0,29.88,West,262,9.0,16.0,78,0.00,,,0.00,VWS V14.01,2013-01-31 17:13:00,
2013-01-31 12:18:00,23.6,17.8,29.89,West,266,6.0,16.0,78,0.00,,,0.00,VWS V14.01,2013-01-31 17:18:00,
2013-01-31 12:23:00,23.2,17.7,29.89,WNW,297,9.0,16.0,79,0.00,,,0.00,VWS V14.01,2013-01-31 17:23:00,
2013-01-31 12:28:00,23.1,17.6,29.89,SSW,207,5.0,13.0,79,0.00,,,0.00,VWS V14.01,2013-01-31 17:28:00,
2013-01-31 12:30:00,23.1,17.6,29.89,SW,215,10.0,16.0,79,0.00,,,0.00,VWS V14.01,2013-01-31 17:30:00,
2013-01-31 12:33:00,23.7,17.9,29.89,WNW,297,3.0,13.0,78,0.00,,,0.00,VWS V14.01,2013-01-31 17:33:00,
2013-01-31 12:38:00,24.0,17.9,29.88,WNW,294,5.0,13.0,77,0.00,,,0.00,VWS V14.01,2013-01-31 17:38:00,
2013-01-31 12:43:00,23.9,17.1,29.88,WNW,294,8.0,13.0,75,0.00,,,0.00,VWS V14.01,2013-01-31 17:43:00,
2013-01-31 12:48:00,23.9,17.5,29.88,North,352,2.0,13.0,76,0.00,,,0.00,VWS V14.01,2013-01-31 17:48:00,
2013-01-31 12:53:00,24.2,17.7,29.88,WNW,294,5.0,13.0,76,0.00,,,0.00,VWS V14.01,2013-01-31 17:53:00,
2013-01-31 12:58:00,24.1,18.0,29.88,SW,235,4.0,4.0,77,0.00,,,0.00,VWS V14.01,2013-01-31 17:58:00,
2013-01-31 13:00:00,24.1,18.0,29.88,NW,318,3.0,13.0,77,0.00,,,0.00,VWS V14.01,2013-01-31 18:00:00,
2013-01-31 13:03:00,23.8,17.4,29.89,WNW,283,5.0,13.0,76,0.00,,,0.00,VWS V14.01,2013-01-31 18:03:00,
2013-01-31 13:08:00,23.6,16.9,29.89,WNW,300,4.0,13.0,75,0.00,,,0.00,VWS V14.01,2013-01-31 18:08:00,
2013-01-31 13:13:00,23.8,17.4,29.89,SW,217,6.0,13.0,76,0.00,,,0.00,VWS V14.01,2013-01-31 18:13:00,
2013-01-31 13:18:00,24.0,17.2,29.89,WNW,301,4.0,13.0,75,0.00,,,0.00,VWS V14.01,2013-01-31 18:18:00,
2013-01-31 13:23:00,24.1,17.6,29.89,NW,312,4.0,13.0,76,0.00,,,0.00,VWS V14.01,2013-01-31 18:23:00,
2013-01-31 13:28:00,23.5,17.1,29.89,West,273,4.0,8.0,76,0.00,,,0.00,VWS V14.01,2013-01-31 18:28:00,
2013-01-31 13:30:00,23.6,17.2,29.89,WNW,283,7.0,13.0,76,0.00,,,0.00,VWS V14.01,2013-01-31 18:30:00,
2013-01-31 13:33:00,23.0,16.9,29.89,NW,326,6.0,14.0,77,0.00,,,0.00,VWS V14.01,2013-01-31 18:33:00,
2013-01-31 13:38:00,22.8,17.0,29.89,NW,306,1.0,14.0,78,0.00,,,0.00,VWS V14.01,2013-01-31 18:38:00,
2013-01-31 13:43:00,22.8,16.7,29.89,NW,305,2.0,14.0,77,0.00,,,0.00,VWS V14.01,2013-01-31 18:43:00,
2013-01-31 13:48:00,23.0,17.2,29.90,WNW,300,4.0,16.0,78,0.00,,,0.00,VWS V14.01,2013-01-31 18:48:00,
2013-01-31 13:53:00,23.4,17.0,29.90,WSW,244,7.0,16.0,76,0.00,,,0.00,VWS V14.01,2013-01-31 18:53:00,
2013-01-31 13:58:00,23.6,16.2,29.89,WNW,301,6.0,13.0,73,0.00,,,0.00,VWS V14.01,2013-01-31 18:58:00,
2013-01-31 14:00:00,23.6,16.5,29.89,NW,304,13.0,16.0,74,0.00,,,0.00,VWS V14.01,2013-01-31 19:00:00,
2013-01-31 14:03:00,23.8,16.4,29.89,West,280,4.0,14.0,73,0.00,,,0.00,VWS V14.01,2013-01-31 19:03:00,
2013-01-31 14:08:00,24.3,16.3,29.89,West,266,4.0,14.0,71,0.00,,,0.00,VWS V14.01,2013-01-31 19:08:00,
2013-01-31 14:13:00,24.0,16.3,29.89,NW,314,5.0,17.0,72,0.00,,,0.00,VWS V14.01,2013-01-31 19:13:00,
2013-01-31 14:18:00,23.5,16.1,29.90,West,277,8.0,17.0,73,0.00,,,0.00,VWS V14.01,2013-01-31 19:18:00,
2013-01-31 14:23:00,23.1,16.4,29.90,WNW,297,10.0,17.0,75,0.00,,,0.00,VWS V14.01,2013-01-31 19:23:00,
2013-01-31 14:28:00,23.0,16.6,29.90,WNW,289,2.0,8.0,76,0.00,,,0.00,VWS V14.01,2013-01-31 19:28:00,
2013-01-31 14:30:00,23.0,16.6,29.90,WSW,255,5.0,17.0,76,0.00,,,0.00,VWS V14.01,2013-01-31 19:30:00,
2013-01-31 14:33:00,22.8,16.7,29.90,WNW,283,3.0,11.0,77,0.00,,,0.00,VWS V14.01,2013-01-31 19:33:00,
2013-01-31 14:38:00,22.5,16.7,29.90,West,263,5.0,12.0,78,0.00,,,0.00,VWS V14.01,2013-01-31 19:38:00,
2013-01-31 14:43:00,22.3,16.5,29.90,WNW,290,8.0,14.0,78,0.00,,,0.00,VWS V14.01,2013-01-31 19:43:00,
2013-01-31 14:48:00,22.2,16.7,29.90,WNW,299,9.0,9.0,79,0.00,,,0.00,VWS V14.01,2013-01-31 19:48:00,
2013-01-31 14:53:00,22.1,16.6,29.90,SSW,211,5.0,12.0,79,0.00,,,0.00,VWS V14.01,2013-01-31 19:53:00,
2013-01-31 14:58:00,22.3,16.8,29.90,SW,217,6.0,9.0,79,0.00,,,0.00,VWS V14.01,2013-01-31 19:58:00,
2013-01-31 15:00:00,22.3,16.8,29.90,West,264,8.0,12.0,79,0.00,,,0.00,VWS V14.01,2013-01-31 20:00:00,
2013-01-31 15:03:00,22.7,16.6,29.90,NW,304,7.0,13.0,77,0.00,,,0.00,VWS V14.01,2013-01-31 20:03:00,
2013-01-31 15:08:00,22.7,16.3,29.90,WNW,293,2.0,13.0,76,0.00,,,0.00,VWS V14.01,2013-01-31 20:08:00,
2013-01-31 15:13:00,22.6,16.2,29.90,WSW,238,3.0,14.0,76,0.00,,,0.00,VWS V14.01,2013-01-31 20:13:00,
2013-01-31 15:18:00,22.8,17.0,29.90,WNW,284,2.0,14.0,78,0.00,,,0.00,VWS V14.01,2013-01-31 20:18:00,
2013-01-31 15:23:00,22.8,17.0,29.90,West,264,6.0,14.0,78,0.00,,,0.00,VWS V14.01,2013-01-31 20:23:00,
2013-01-31 15:28:00,22.4,16.9,29.90,NW,324,2.0,6.0,79,0.00,,,0.00,VWS V14.01,2013-01-31 20:28:00,
2013-01-31 15:30:00,22.5,17.0,29.90,West,266,4.0,14.0,79,0.00,,,0.00,VWS V14.01,2013-01-31 20:30:00,
2013-01-31 15:33:00,22.4,17.2,29.90,NW,307,7.0,7.0,80,0.00,,,0.00,VWS V14.01,2013-01-31 20:33:00,
2013-01-31 15:38:00,22.4,16.3,29.90,West,281,6.0,11.0,77,0.00,,,0.00,VWS V14.01,2013-01-31 20:38:00,
2013-01-31 15:43:00,22.3,16.8,29.90,West,281,8.0,11.0,79,0.00,,,0.00,VWS V14.01,2013-01-31 20:43:00,
2013-01-31 15:48:00,22.1,17.5,29.90,NW,322,7.0,11.0,82,0.00,,,0.00,VWS V14.01,2013-01-31 20:48:00,
2013-01-31 15:53:00,22.3,16.8,29.91,WSW,242,7.0,15.0,79,0.00,,,0.00,VWS V14.01,2013-01-31 20:53:00,
2013-01-31 15:58:00,22.5,16.4,29.90,West,266,5.0,7.0,77,0.00,,,0.00,VWS V14.01,2013-01-31 20:58:00,
2013-01-31 16:00:00,22.5,16.1,29.91,WNW,284,6.0,16.0,76,0.00,,,0.00,VWS V14.01,2013-01-31 21:00:00,
2013-01-31 16:03:00,22.8,15.8,29.90,WSW,248,8.0,14.0,74,0.00,,,0.00,VWS V14.01,2013-01-31 21:03:00,
2013-01-31 16:08:00,22.8,14.5,29.91,WNW,290,4.0,4.0,70,0.00,,,0.00,VWS V14.01,2013-01-31 21:08:00,
2013-01-31 16:13:00,22.7,14.7,29.90,West,277,6.0,9.0,71,0.00,,,0.00,VWS V14.01,2013-01-31 21:13:00,
2013-01-31 16:18:00,22.5,16.4,29.91,WNW,294,4.0,9.0,77,0.00,,,0.00,VWS V14.01,2013-01-31 21:18:00,
2013-01-31 16:23:00,22.1,16.3,29.91,NW,316,4.0,9.0,78,0.00,,,0.00,VWS V14.01,2013-01-31 21:23:00,
2013-01-31 16:28:00,22.0,16.8,29.91,West,281,9.0,9.0,80,0.00,,,0.00,VWS V14.01,2013-01-31 21:28:00,
2013-01-31 16:30:00,22.0,16.5,29.91,West,277,2.0,9.0,79,0.00,,,0.00,VWS V14.01,2013-01-31 21:30:00,
2013-01-31 16:33:00,21.8,16.3,29.91,West,277,3.0,9.0,79,0.00,,,0.00,VWS V14.01,2013-01-31 21:33:00,
2013-01-31 16:38:00,21.7,16.8,29.91,WNW,284,3.0,13.0,81,0.00,,,0.00,VWS V14.01,2013-01-31 21:38:00,
2013-01-31 16:43:00,21.7,17.1,29.91,NW,306,2.0,13.0,82,0.00,,,0.00,VWS V14.01,2013-01-31 21:43:00,
2013-01-31 16:48:00,21.6,17.0,29.91,NW,314,2.0,13.0,82,0.00,,,0.00,VWS V14.01,2013-01-31 21:48:00,
2013-01-31 16:53:00,21.4,16.8,29.91,NW,304,9.0,13.0,82,0.00,,,0.00,VWS V14.01,2013-01-31 21:53:00,
2013-01-31 16:58:00,21.0,16.7,29.91,NW,326,4.0,11.0,83,0.00,,,0.00,VWS V14.01,2013-01-31 21:58:00,
2013-01-31 17:00:00,21.1,16.8,29.91,WNW,297,11.0,13.0,83,0.00,,,0.00,VWS V14.01,2013-01-31 22:00:00,
2013-01-31 17:08:00,20.5,16.7,29.92,WSW,245,4.0,4.0,85,0.00,,,0.00,VWS V14.01,2013-01-31 22:08:00,
2013-01-31 17:13:00,20.4,17.0,29.92,WSW,255,2.0,13.0,85,0.00,,,0.00,weatherlink.com 1.10,2013-01-31 22:13:00,
2013-01-31 17:19:00,20.3,16.5,29.92,WSW,249,3.0,3.0,85,0.00,,,0.00,VWS V14.01,2013-01-31 22:19:00,
2013-01-31 17:24:00,20.1,16.3,29.93,WNW,297,4.0,13.0,85,0.00,,,0.00,VWS V14.01,2013-01-31 22:24:00,
2013-01-31 17:29:00,19.8,16.0,29.93,West,277,4.0,9.0,85,0.00,,,0.00,VWS V14.01,2013-01-31 22:29:00,
2013-01-31 17:30:00,19.9,16.1,29.93,NW,306,2.0,13.0,85,0.00,,,0.00,VWS V14.01,2013-01-31 22:30:00,
2013-01-31 17:34:00,19.8,16.0,29.93,NW,306,14.0,14.0,85,0.00,,,0.00,VWS V14.01,2013-01-31 22:34:00,
2013-01-31 17:39:00,19.6,15.8,29.94,WNW,300,5.0,14.0,85,0.00,,,0.00,VWS V14.01,2013-01-31 22:39:00,
2013-01-31 17:44:00,19.5,15.7,29.94,WNW,290,1.0,14.0,85,0.00,,,0.00,VWS V14.01,2013-01-31 22:44:00,
2013-01-31 17:49:00,19.2,14.9,29.95,WNW,283,5.0,14.0,83,0.00,,,0.00,VWS V14.01,2013-01-31 22:49:00,
2013-01-31 17:54:00,18.6,14.0,29.95,West,281,4.0,14.0,82,0.00,,,0.00,VWS V14.01,2013-01-31 22:54:00,
2013-01-31 17:59:00,18.2,13.6,29.95,SW,219,7.0,7.0,82,0.00,,,0.00,VWS V14.01,2013-01-31 22:59:00,
2013-01-31 18:00:00,18.3,13.5,29.95,WSW,239,4.0,14.0,81,0.00,,,0.00,VWS V14.01,2013-01-31 23:00:00,
2013-01-31 18:04:00,18.0,12.9,29.96,NW,307,6.0,15.0,80,0.00,,,0.00,VWS V14.01,2013-01-31 23:04:00,
2013-01-31 18:09:00,17.7,12.6,29.96,WSW,237,10.0,15.0,80,0.00,,,0.00,VWS V14.01,2013-01-31 23:09:00,
2013-01-31 18:14:00,17.4,11.7,29.97,NW,326,13.0,20.0,78,0.00,,,0.00,VWS V14.01,2013-01-31 23:14:00,
2013-01-31 18:19:00,17.3,11.6,29.97,WNW,284,6.0,20.0,78,0.00,,,0.00,VWS V14.01,2013-01-31 23:19:00,
2013-01-31 18:24:00,17.2,11.2,29.97,WNW,290,9.0,20.0,77,0.00,,,0.00,VWS V14.01,2013-01-31 23:24:00,
2013-01-31 18:29:00,17.1,10.9,29.98,NW,318,7.0,10.0,76,0.00,,,0.00,VWS V14.01,2013-01-31 23:29:00,
2013-01-31 18:30:00,17.1,11.1,29.97,NW,304,8.0,20.0,77,0.00,,,0.00,VWS V14.01,2013-01-31 23:30:00,
2013-01-31 18:34:00,17.0,10.2,29.98,WNW,298,2.0,10.0,74,0.00,,,0.00,VWS V14.01,2013-01-31 23:34:00,
2013-01-31 18:39:00,16.9,10.1,29.98,West,264,2.0,14.0,74,0.00,,,0.00,VWS V14.01,2013-01-31 23:39:00,
2013-01-31 18:44:00,16.8,10.0,29.98,West,276,6.0,16.0,74,0.00,,,0.00,VWS V14.01,2013-01-31 23:44:00,
2013-01-31 18:49:00,16.7,9.9,29.99,NW,323,7.0,16.0,74,0.00,,,0.00,VWS V14.01,2013-01-31 23:49:00,
2013-01-31 18:54:00,16.6,9.5,29.99,NW,321,3.0,16.0,73,0.00,,,0.00,VWS V14.01,2013-01-31 23:54:00,
2013-01-31 18:59:00,16.6,9.8,29.99,NNW,329,6.0,13.0,74,0.00,,,0.00,VWS V14.01,2013-01-31 23:59:00,
2013-01-31 19:00:00,16.6,9.5,29.99,NNW,338,7.0,18.0,73,0.00,,,0.00,VWS V14.01,2013-02-01 00:00:00,
2013-01-31 19:04:00,16.5,9.7,30.00,NW,307,14.0,17.0,74,0.00,,,0.00,VWS V14.01,2013-02-01 00:04:00,
2013-01-31 19:09:00,16.4,9.9,30.00,West,274,4.0,17.0,75,0.00,,,0.00,VWS V14.01,2013-02-01 00:09:00,
2013-01-31 19:14:00,16.2,10.3,30.00,WNW,299,4.0,17.0,77,0.00,,,0.00,VWS V14.01,2013-02-01 00:14:00,
2013-01-31 19:19:00,15.8,10.5,30.00,WNW,294,6.0,17.0,79,0.00,,,0.00,VWS V14.01,2013-02-01 00:19:00,
2013-01-31 19:24:00,15.6,10.5,30.01,WNW,288,4.0,17.0,80,0.00,,,0.00,VWS V14.01,2013-02-01 00:24:00,
2013-01-31 19:29:00,15.7,10.6,30.01,NNW,333,6.0,11.0,80,0.00,,,0.00,VWS V14.01,2013-02-01 00:29:00,
2013-01-31 19:30:00,15.6,10.5,30.01,NW,317,4.0,17.0,80,0.00,,,0.00,VWS V14.01,2013-02-01 00:30:00,
2013-01-31 19:34:00,15.6,10.5,30.01,NW,304,6.0,13.0,80,0.00,,,0.00,VWS V14.01,2013-02-01 00:34:00,
2013-01-31 19:39:00,15.2,10.4,30.02,NW,306,2.0,14.0,81,0.00,,,0.00,VWS V14.01,2013-02-01 00:39:00,
2013-01-31 19:44:00,14.9,10.1,30.02,West,267,5.0,14.0,81,0.00,,,0.00,VWS V14.01,2013-02-01 00:44:00,
2013-01-31 19:49:00,14.9,9.6,30.01,West,272,7.0,14.0,79,0.00,,,0.00,VWS V14.01,2013-02-01 00:49:00,
2013-01-31 19:54:00,14.8,8.3,30.02,WNW,302,7.0,17.0,75,0.00,,,0.00,VWS V14.01,2013-02-01 00:54:00,
2013-01-31 19:59:00,14.7,8.8,30.02,NNW,333,7.0,14.0,77,0.00,,,0.00,VWS V14.01,2013-02-01 00:59:00,
2013-01-31 20:00:00,14.8,8.6,30.02,West,281,6.0,17.0,76,0.00,,,0.00,VWS V14.01,2013-02-01 01:00:00,
2013-01-31 20:04:00,14.7,9.1,30.02,WNW,287,8.0,16.0,78,0.00,,,0.00,VWS V14.01,2013-02-01 01:04:00,
2013-01-31 20:09:00,14.5,8.9,30.02,WNW,290,5.0,16.0,78,0.00,,,0.00,VWS V14.01,2013-02-01 01:09:00,
2013-01-31 20:14:00,14.3,8.1,30.02,West,273,12.0,16.0,76,0.00,,,0.00,VWS V14.01,2013-02-01 01:14:00,
2013-01-31 20:19:00,14.3,8.4,30.02,WNW,299,7.0,16.0,77,0.00,,,0.00,VWS V14.01,2013-02-01 01:19:00,
2013-01-31 20:24:00,14.2,8.0,30.02,NW,320,5.0,17.0,76,0.00,,,0.00,VWS V14.01,2013-02-01 01:24:00,
2013-01-31 20:29:00,14.0,7.8,30.03,WNW,297,6.0,16.0,76,0.00,,,0.00,VWS V14.01,2013-02-01 01:29:00,
2013-01-31 20:30:00,14.1,7.9,30.03,WNW,290,5.0,17.0,76,0.00,,,0.00,VWS V14.01,2013-02-01 01:30:00,
2013-01-31 20:34:00,14.0,8.1,30.03,NW,314,5.0,16.0,77,0.00,,,0.00,VWS V14.01,2013-02-01 01:34:00,
2013-01-31 20:39:00,13.9,8.0,30.03,West,281,13.0,17.0,77,0.00,,,0.00,VWS V14.01,2013-02-01 01:39:00,
2013-01-31 20:44:00,13.8,7.9,30.03,West,279,8.0,17.0,77,0.00,,,0.00,VWS V14.01,2013-02-01 01:44:00,
2013-01-31 20:49:00,13.7,7.8,30.03,West,259,12.0,17.0,77,0.00,,,0.00,VWS V14.01,2013-02-01 01:49:00,
2013-01-31 20:54:00,13.4,8.9,30.03,West,279,3.0,17.0,82,0.00,,,0.00,VWS V14.01,2013-02-01 01:54:00,
2013-01-31 20:59:00,13.2,9.6,30.04,WNW,300,7.0,14.0,85,0.00,,,0.00,VWS V14.01,2013-02-01 01:59:00,
2013-01-31 21:00:00,13.2,9.6,30.03,SW,218,9.0,17.0,85,0.00,,,0.00,VWS V14.01,2013-02-01 02:00:00,
2013-01-31 21:04:00,12.9,9.5,30.04,NNW,341,8.0,15.0,86,0.00,,,0.00,VWS V14.01,2013-02-01 02:04:00,
2013-01-31 21:09:00,12.9,9.2,30.04,WNW,288,10.0,15.0,85,0.00,,,0.00,VWS V14.01,2013-02-01 02:09:00,
2013-01-31 21:14:00,12.8,9.1,30.04,NW,314,12.0,15.0,85,0.00,,,0.00,VWS V14.01,2013-02-01 02:14:00,
2013-01-31 21:18:00,12.6,9.0,30.05,NW,312,9.0,9.0,85,0.00,,,0.00,VWS V14.01,2013-02-01 02:18:00,
2013-01-31 21:23:00,12.4,7.7,30.05,WNW,293,3.0,12.0,81,0.00,,,0.00,VWS V14.01,2013-02-01 02:23:00,
2013-01-31 21:28:00,12.2,7.2,30.05,NW,317,4.0,10.0,80,0.00,,,0.00,VWS V14.01,2013-02-01 02:28:00,
2013-01-31 21:30:00,12.2,7.2,30.05,NW,317,10.0,10.0,80,0.00,,,0.00,VWS V14.01,2013-02-01 02:30:00,
2013-01-31 21:33:00,11.9,6.9,30.05,WNW,284,8.0,15.0,80,0.00,,,0.00,VWS V14.01,2013-02-01 02:33:00,
2013-01-31 21:38:00,11.8,6.8,30.06,NW,307,4.0,15.0,80,0.00,,,0.00,VWS V14.01,2013-02-01 02:38:00,
2013-01-31 21:43:00,11.8,6.8,30.06,WNW,293,8.0,11.0,80,0.00,,,0.00,VWS V14.01,2013-02-01 02:43:00,
2013-01-31 21:48:00,11.7,7.3,30.06,West,278,8.0,15.0,82,0.00,,,0.00,VWS V14.01,2013-02-01 02:48:00,
2013-01-31 21:53:00,11.6,7.4,30.06,NW,307,11.0,12.0,83,0.00,,,0.00,VWS V14.01,2013-02-01 02:53:00,
2013-01-31 21:58:00,11.7,7.8,30.07,WNW,294,5.0,6.0,84,0.00,,,0.00,VWS V14.01,2013-02-01 02:58:00,
2013-01-31 22:00:00,11.7,7.8,30.07,West,279,2.0,13.0,84,0.00,,,0.00,VWS V14.01,2013-02-01 03:00:00,
2013-01-31 22:03:00,11.5,6.5,30.07,WNW,297,5.0,16.0,80,0.00,,,0.00,VWS V14.01,2013-02-01 03:03:00,
2013-01-31 22:08:00,11.3,6.1,30.08,WNW,302,5.0,16.0,79,0.00,,,0.00,VWS V14.01,2013-02-01 03:08:00,
2013-01-31 22:13:00,11.1,5.9,30.08,WNW,299,5.0,16.0,79,0.00,,,0.00,VWS V14.01,2013-02-01 03:13:00,
2013-01-31 22:18:00,10.9,5.1,30.08,NW,309,8.0,16.0,77,0.00,,,0.00,VWS V14.01,2013-02-01 03:18:00,
2013-01-31 22:23:00,10.7,4.6,30.09,NW,306,3.0,16.0,76,0.00,,,0.00,VWS V14.01,2013-02-01 03:23:00,
2013-01-31 22:28:00,10.6,4.2,30.09,NW,316,7.0,14.0,75,0.00,,,0.00,VWS V14.01,2013-02-01 03:28:00,
2013-01-31 22:30:00,10.7,4.3,30.09,West,262,14.0,18.0,75,0.00,,,0.00,VWS V14.01,2013-02-01 03:30:00,
2013-01-31 22:33:00,10.4,3.8,30.09,NW,312,9.0,14.0,74,0.00,,,0.00,VWS V14.01,2013-02-01 03:33:00,
2013-01-31 22:38:00,10.3,4.2,30.09,NW,316,6.0,14.0,76,0.00,,,0.00,VWS V14.01,2013-02-01 03:38:00,
2013-01-31 22:43:00,10.3,4.0,30.10,WNW,282,5.0,15.0,75,0.00,,,0.00,VWS V14.01,2013-02-01 03:43:00,
2013-01-31 22:48:00,10.1,4.1,30.10,WNW,285,4.0,15.0,76,0.00,,,0.00,VWS V14.01,2013-02-01 03:48:00,
2013-01-31 22:53:00,10.1,4.3,30.10,WNW,289,6.0,15.0,77,0.00,,,0.00,VWS V14.01,2013-02-01 03:53:00,
2013-01-31 22:58:00,10.0,4.8,30.10,WNW,289,7.0,12.0,79,0.00,,,0.00,VWS V14.01,2013-02-01 03:58:00,
2013-01-31 23:00:00,10.0,4.5,30.10,WNW,283,7.0,15.0,78,0.00,,,0.00,VWS V14.01,2013-02-01 04:00:00,
2013-01-31 23:03:00,9.8,4.3,30.11,NW,317,9.0,16.0,78,0.00,,,0.00,VWS V14.01,2013-02-01 04:03:00,
2013-01-31 23:08:00,9.6,3.6,30.11,WNW,300,6.0,16.0,76,0.00,,,0.00,VWS V14.01,2013-02-01 04:08:00,
2013-01-31 23:13:00,9.3,3.0,30.11,West,273,4.0,16.0,75,0.00,,,0.00,VWS V14.01,2013-02-01 04:13:00,
2013-01-31 23:18:00,9.1,2.8,30.12,West,262,3.0,16.0,75,0.00,,,0.00,VWS V14.01,2013-02-01 04:18:00,
2013-01-31 23:23:00,9.0,3.0,30.12,West,271,3.0,16.0,76,0.00,,,0.00,VWS V14.01,2013-02-01 04:23:00,
2013-01-31 23:28:00,8.9,3.5,30.13,WNW,302,6.0,12.0,78,0.00,,,0.00,VWS V14.01,2013-02-01 04:28:00,
2013-01-31 23:30:00,8.9,3.2,30.12,WNW,289,6.0,6.0,77,0.00,,,0.00,VWS V14.01,2013-02-01 04:30:00,
2013-01-31 23:33:00,8.9,3.7,30.12,NW,311,8.0,14.0,79,0.00,,,0.00,VWS V14.01,2013-02-01 04:33:00,
2013-01-31 23:38:00,8.8,3.9,30.13,NW,304,8.0,14.0,80,0.00,,,0.00,VWS V14.01,2013-02-01 04:38:00,
2013-01-31 23:43:00,8.8,4.2,30.13,NW,317,11.0,11.0,81,0.00,,,0.00,VWS V14.01,2013-02-01 04:43:00,
2013-01-31 23:48:00,8.7,4.1,30.13,WNW,302,8.0,13.0,81,0.00,,,0.00,VWS V14.01,2013-02-01 04:48:00,
2013-01-31 23:53:00,8.5,3.6,30.13,NW,321,5.0,14.0,80,0.00,,,0.00,VWS V14.01,2013-02-01 04:53:00,
2013-01-31 23:58:00,8.4,2.7,30.14,West,259,10.0,14.0,77,0.00,,,0.00,VWS V14.01,2013-02-01 04:58:00,